Location: Hurecourt
(47.9030°N, 6.0653°E)
Time: 10:59:54
(UTC+00:00)

Cosmos 1782 Rocket - Pass Details

Date: 14 July 2020
Orbit: 606 x 633 km, 82.5° (Epoch: 05 August)

Event Time Altitude Azimuth Distance (km) Brightness Sun altitude
Exits shadow 02:53:00 - 179° (S) 2,790 6.5 -8.3°
Reaches altitude 10° 02:54:57 10° 177° (S) 2,001 5.8 -8.1°
Maximum altitude 02:59:20 65° 96° (E) 693 4.0 -7.6°
Drops below altitude 10° 03:03:44 10° 15° (NNE) 2,002 7.2 -7.1°
Sets 03:05:58 0° 13° (NNE) 2,908 8.1 -6.8°
